Location: Mohawk View
(42.7837°N, 73.7885°W)
Time: 06:57:17
(UTC+00:00)

Cosmos 1092 Rocket - Pass Details

Date: 17 June 2021
Orbit: 955 x 994 km, 82.9° (Epoch: 28 July)

Event Time Altitude Azimuth Distance (km) Brightness Sun altitude
Exits shadow 06:54:19 27° 182° (S) 1,765 4.9 -18.4°
Maximum altitude 06:57:55 84° 96° (E) 966 4.0 -18.1°
Drops below altitude 10° 07:04:05 10° 9° (N) 2,695 7.4 -17.6°
Sets 07:06:35 0° 9° (N) 3,646 8.3 -17.3°
